owner,sensor,date,latitude,longitude,vertical_datum,sea_water_temperature,qcFlag 
ENP,ioos.station.NOAA.NDBC:CNBF1:1,2014-11-01T00:00:00Z,25.7020,-81.1860,1.0,27.43,2 
ENP,ioos.station.NOAA.NDBC:CNBF1:1,2014-11-01T01:00:00Z,25.7020,-81.1860,1.0,27.2,2 
ENP,ioos.station.NOAA.NDBC:CNBF1:1,2014-11-01T02:00:00Z,25.7020,-81.1860,1.0,27.02,2 
ENP,ioos.station.NOAA.NDBC:CNBF1:1,2014-11-01T04:00:00Z,25.7020,-81.1860,1.0,26.44,2 
ENP,ioos.station.NOAA.NDBC:CNBF1:1,2014-11-01T05:00:00Z,25.7020,-81.1860,1.0,26.25,2 
ENP,ioos.station.NOAA.NDBC:CNBF1:1,2014-11-01T07:00:00Z,25.7020,-81.1860,1.0,25.98,2 
ENP,ioos.station.NOAA.NDBC:CNBF1:1,2014-11-01T08:00:00Z,25.7020,-81.1860,1.0,25.84,2 
ENP,ioos.station.NOAA.NDBC:CNBF1:1,2014-11-01T10:00:00Z,25.7020,-81.1860,1.0,25.42,2 
ENP,ioos.station.NOAA.NDBC:CNBF1:1,2014-11-01T11:00:00Z,25.7020,-81.1860,1.0,25.25,2 
ENP,ioos.station.NOAA.NDBC:CNBF1:1,2014-11-01T12:00:00Z,25.7020,-81.1860,1.0,25.07,2 
ENP,ioos.station.NOAA.NDBC:CNBF1:1,2014-11-01T13:00:00Z,25.7020,-81.1860,1.0,24.86,2 
ENP,ioos.station.NOAA.NDBC:CNBF1:1,2014-11-01T14:00:00Z,25.7020,-81.1860,1.0,24.75,2 
ENP,ioos.station.NOAA.NDBC:CNBF1:1,2014-11-01T15:00:00Z,25.7020,-81.1860,1.0,24.73,2 
ENP,ioos.station.NOAA.NDBC:CNBF1:1,2014-11-01T16:00:00Z,25.7020,-81.1860,1.0,24.78,2 
ENP,ioos.station.NOAA.NDBC:CNBF1:1,2014-11-01T18:00:00Z,25.7020,-81.1860,1.0,25.21,2 
ENP,ioos.station.NOAA.NDBC:CNBF1:1,2014-11-01T19:00:00Z,25.7020,-81.1860,1.0,25.2,2 
ENP,ioos.station.NOAA.NDBC:CNBF1:1,2014-11-01T20:00:00Z,25.7020,-81.1860,1.0,25.29,2 
ENP,ioos.station.NOAA.NDBC:CNBF1:1,2014-11-01T22:00:00Z,25.7020,-81.1860,1.0,25.04,2 
ENP,ioos.station.NOAA.NDBC:CNBF1:1,2014-11-01T23:00:00Z,25.7020,-81.1860,1.0,24.66,2 
ENP,ioos.station.NOAA.NDBC:CNBF1:1,2014-11-02T00:00:00Z,25.7020,-81.1860,1.0,24.29,2 
ENP,ioos.station.NOAA.NDBC:CNBF1:1,2014-11-02T02:00:00Z,25.7020,-81.1860,1.0,23.92,2 
ENP,ioos.station.NOAA.NDBC:CNBF1:1,2014-11-02T03:00:00Z,25.7020,-81.1860,1.0,23.71,2 
ENP,ioos.station.NOAA.NDBC:CNBF1:1,2014-11-02T05:00:00Z,25.7020,-81.1860,1.0,23.51,2 
ENP,ioos.station.NOAA.NDBC:CNBF1:1,2014-11-02T06:00:00Z,25.7020,-81.1860,1.0,23.36,2 
ENP,ioos.station.NOAA.NDBC:CNBF1:1,2014-11-02T07:00:00Z,25.7020,-81.1860,1.0,22.61,2 
ENP,ioos.station.NOAA.NDBC:CNBF1:1,2014-11-02T09:00:00Z,25.7020,-81.1860,1.0,22.12,2 
ENP,ioos.station.NOAA.NDBC:CNBF1:1,2014-11-02T10:00:00Z,25.7020,-81.1860,1.0,21.82,2 
ENP,ioos.station.NOAA.NDBC:CNBF1:1,2014-11-02T11:00:00Z,25.7020,-81.1860,1.0,21.52,2 
ENP,ioos.station.NOAA.NDBC:CNBF1:1,2014-11-02T13:00:00Z,25.7020,-81.1860,1.0,20.95,2 
ENP,ioos.station.NOAA.NDBC:CNBF1:1,2014-11-02T14:00:00Z,25.7020,-81.1860,1.0,20.57,2 
ENP,ioos.station.NOAA.NDBC:CNBF1:1,2014-11-02T15:00:00Z,25.7020,-81.1860,1.0,20.5,2 
ENP,ioos.station.NOAA.NDBC:CNBF1:1,2014-11-02T16:00:00Z,25.7020,-81.1860,1.0,20.61,2 
ENP,ioos.station.NOAA.NDBC:CNBF1:1,2014-11-02T17:00:00Z,25.7020,-81.1860,1.0,20.74,2 
ENP,ioos.station.NOAA.NDBC:CNBF1:1,2014-11-02T18:00:00Z,25.7020,-81.1860,1.0,20.82,2 
ENP,ioos.station.NOAA.NDBC:CNBF1:1,2014-11-02T19:00:00Z,25.7020,-81.1860,1.0,21.01,2 
ENP,ioos.station.NOAA.NDBC:CNBF1:1,2014-11-02T21:00:00Z,25.7020,-81.1860,1.0,21.37,2 
ENP,ioos.station.NOAA.NDBC:CNBF1:1,2014-11-02T22:00:00Z,25.7020,-81.1860,1.0,21.52,2 
ENP,ioos.station.NOAA.NDBC:CNBF1:1,2014-11-03T00:00:00Z,25.7020,-81.1860,1.0,21.46,2 
ENP,ioos.station.NOAA.NDBC:CNBF1:1,2014-11-03T01:00:00Z,25.7020,-81.1860,1.0,21.31,2 
ENP,ioos.station.NOAA.NDBC:CNBF1:1,2014-11-03T02:00:00Z,25.7020,-81.1860,1.0,21.18,2 
ENP,ioos.station.NOAA.NDBC:CNBF1:1,2014-11-03T03:00:00Z,25.7020,-81.1860,1.0,21.02,2 
ENP,ioos.station.NOAA.NDBC:CNBF1:1,2014-11-03T05:00:00Z,25.7020,-81.1860,1.0,20.4,2 
ENP,ioos.station.NOAA.NDBC:CNBF1:1,2014-11-03T06:00:00Z,25.7020,-81.1860,1.0,20.24,2 
ENP,ioos.station.NOAA.NDBC:CNBF1:1,2014-11-03T08:00:00Z,25.7020,-81.1860,1.0,19.97,2 
ENP,ioos.station.NOAA.NDBC:CNBF1:1,2014-11-03T10:00:00Z,25.7020,-81.1860,1.0,19.53,2 
ENP,ioos.station.NOAA.NDBC:CNBF1:1,2014-11-03T11:00:00Z,25.7020,-81.1860,1.0,19.32,2 
ENP,ioos.station.NOAA.NDBC:CNBF1:1,2014-11-03T13:00:00Z,25.7020,-81.1860,1.0,18.9,2 
ENP,ioos.station.NOAA.NDBC:CNBF1:1,2014-11-03T14:00:00Z,25.7020,-81.1860,1.0,18.85,2 
ENP,ioos.station.NOAA.NDBC:CNBF1:1,2014-11-03T15:00:00Z,25.7020,-81.1860,1.0,19.18,2 
ENP,ioos.station.NOAA.NDBC:CNBF1:1,2014-11-03T16:00:00Z,25.7020,-81.1860,1.0,19.36,2 
ENP,ioos.station.NOAA.NDBC:CNBF1:1,2014-11-03T17:00:00Z,25.7020,-81.1860,1.0,19.78,2 
ENP,ioos.station.NOAA.NDBC:CNBF1:1,2014-11-03T18:00:00Z,25.7020,-81.1860,1.0,20.54,2 
ENP,ioos.station.NOAA.NDBC:CNBF1:1,2014-11-03T19:00:00Z,25.7020,-81.1860,1.0,20.9,2 
ENP,ioos.station.NOAA.NDBC:CNBF1:1,2014-11-03T21:00:00Z,25.7020,-81.1860,1.0,21.42,2 
ENP,ioos.station.NOAA.NDBC:CNBF1:1,2014-11-03T22:00:00Z,25.7020,-81.1860,1.0,21.55,2 
ENP,ioos.station.NOAA.NDBC:CNBF1:1,2014-11-03T23:00:00Z,25.7020,-81.1860,1.0,21.58,2 
ENP,ioos.station.NOAA.NDBC:CNBF1:1,2014-11-04T01:00:00Z,25.7020,-81.1860,1.0,21.42,2 
ENP,ioos.station.NOAA.NDBC:CNBF1:1,2014-11-04T02:00:00Z,25.7020,-81.1860,1.0,21.31,2 
ENP,ioos.station.NOAA.NDBC:CNBF1:1,2014-11-04T03:00:00Z,25.7020,-81.1860,1.0,21.12,2 
ENP,ioos.station.NOAA.NDBC:CNBF1:1,2014-11-04T05:00:00Z,25.7020,-81.1860,1.0,20.82,2 
ENP,ioos.station.NOAA.NDBC:CNBF1:1,2014-11-04T06:00:00Z,25.7020,-81.1860,1.0,20.73,2 
ENP,ioos.station.NOAA.NDBC:CNBF1:1,2014-11-04T08:00:00Z,25.7020,-81.1860,1.0,20.66,2 
ENP,ioos.station.NOAA.NDBC:CNBF1:1,2014-11-04T09:00:00Z,25.7020,-81.1860,1.0,20.52,2 
ENP,ioos.station.NOAA.NDBC:CNBF1:1,2014-11-04T10:00:00Z,25.7020,-81.1860,1.0,20.36,2 
ENP,ioos.station.NOAA.NDBC:CNBF1:1,2014-11-04T11:00:00Z,25.7020,-81.1860,1.0,20.24,2 
ENP,ioos.station.NOAA.NDBC:CNBF1:1,2014-11-04T13:00:00Z,25.7020,-81.1860,1.0,20.0,2 
ENP,ioos.station.NOAA.NDBC:CNBF1:1,2014-11-04T14:00:00Z,25.7020,-81.1860,1.0,19.89,2 
ENP,ioos.station.NOAA.NDBC:CNBF1:1,2014-11-04T16:00:00Z,25.7020,-81.1860,1.0,20.56,2 
ENP,ioos.station.NOAA.NDBC:CNBF1:1,2014-11-04T18:00:00Z,25.7020,-81.1860,1.0,21.29,2 
ENP,ioos.station.NOAA.NDBC:CNBF1:1,2014-11-04T19:00:00Z,25.7020,-81.1860,1.0,21.4,2 
ENP,ioos.station.NOAA.NDBC:CNBF1:1,2014-11-04T21:00:00Z,25.7020,-81.1860,1.0,21.82,2 
ENP,ioos.station.NOAA.NDBC:CNBF1:1,2014-11-04T22:00:00Z,25.7020,-81.1860,1.0,21.88,2 
ENP,ioos.station.NOAA.NDBC:CNBF1:1,2014-11-04T23:00:00Z,25.7020,-81.1860,1.0,21.79,2 
ENP,ioos.station.NOAA.NDBC:CNBF1:1,2014-11-05T01:00:00Z,25.7020,-81.1860,1.0,21.57,2 
ENP,ioos.station.NOAA.NDBC:CNBF1:1,2014-11-05T02:00:00Z,25.7020,-81.1860,1.0,21.56,2 
ENP,ioos.station.NOAA.NDBC:CNBF1:1,2014-11-05T03:00:00Z,25.7020,-81.1860,1.0,21.48,2 
ENP,ioos.station.NOAA.NDBC:CNBF1:1,2014-11-05T05:00:00Z,25.7020,-81.1860,1.0,21.26,2 
ENP,ioos.station.NOAA.NDBC:CNBF1:1,2014-11-05T06:00:00Z,25.7020,-81.1860,1.0,21.19,2 
ENP,ioos.station.NOAA.NDBC:CNBF1:1,2014-11-05T07:00:00Z,25.7020,-81.1860,1.0,21.08,2 
ENP,ioos.station.NOAA.NDBC:CNBF1:1,2014-11-05T09:00:00Z,25.7020,-81.1860,1.0,20.84,2 
ENP,ioos.station.NOAA.NDBC:CNBF1:1,2014-11-05T10:00:00Z,25.7020,-81.1860,1.0,20.76,2 
ENP,ioos.station.NOAA.NDBC:CNBF1:1,2014-11-05T11:00:00Z,25.7020,-81.1860,1.0,20.68,2 
ENP,ioos.station.NOAA.NDBC:CNBF1:1,2014-11-05T13:00:00Z,25.7020,-81.1860,1.0,20.48,2 
ENP,ioos.station.NOAA.NDBC:CNBF1:1,2014-11-05T14:00:00Z,25.7020,-81.1860,1.0,20.42,2 
ENP,ioos.station.NOAA.NDBC:CNBF1:1,2014-11-05T15:00:00Z,25.7020,-81.1860,1.0,20.45,2 
ENP,ioos.station.NOAA.NDBC:CNBF1:1,2014-11-05T16:00:00Z,25.7020,-81.1860,1.0,20.91,2 
ENP,ioos.station.NOAA.NDBC:CNBF1:1,2014-11-05T17:00:00Z,25.7020,-81.1860,1.0,21.48,2 
ENP,ioos.station.NOAA.NDBC:CNBF1:1,2014-11-05T19:00:00Z,25.7020,-81.1860,1.0,22.34,2 
ENP,ioos.station.NOAA.NDBC:CNBF1:1,2014-11-05T21:00:00Z,25.7020,-81.1860,1.0,22.92,2 
ENP,ioos.station.NOAA.NDBC:CNBF1:1,2014-11-05T22:00:00Z,25.7020,-81.1860,1.0,23.14,2 
ENP,ioos.station.NOAA.NDBC:CNBF1:1,2014-11-05T23:00:00Z,25.7020,-81.1860,1.0,23.1,2 
ENP,ioos.station.NOAA.NDBC:CNBF1:1,2014-11-06T00:00:00Z,25.7020,-81.1860,1.0,23.02,2 
ENP,ioos.station.NOAA.NDBC:CNBF1:1,2014-11-06T01:00:00Z,25.7020,-81.1860,1.0,22.97,2 
ENP,ioos.station.NOAA.NDBC:CNBF1:1,2014-11-06T02:00:00Z,25.7020,-81.1860,1.0,22.92,2 
ENP,ioos.station.NOAA.NDBC:CNBF1:1,2014-11-06T03:00:00Z,25.7020,-81.1860,1.0,22.88,2 
ENP,ioos.station.NOAA.NDBC:CNBF1:1,2014-11-06T05:00:00Z,25.7020,-81.1860,1.0,22.78,2 
ENP,ioos.station.NOAA.NDBC:CNBF1:1,2014-11-06T06:00:00Z,25.7020,-81.1860,1.0,22.67,2 
ENP,ioos.station.NOAA.NDBC:CNBF1:1,2014-11-06T07:00:00Z,25.7020,-81.1860,1.0,22.69,2 
ENP,ioos.station.NOAA.NDBC:CNBF1:1,2014-11-06T09:00:00Z,25.7020,-81.1860,1.0,22.48,2 
ENP,ioos.station.NOAA.NDBC:CNBF1:1,2014-11-06T10:00:00Z,25.7020,-81.1860,1.0,22.43,2 
ENP,ioos.station.NOAA.NDBC:CNBF1:1,2014-11-06T11:00:00Z,25.7020,-81.1860,1.0,22.33,2 
ENP,ioos.station.NOAA.NDBC:CNBF1:1,2014-11-06T12:00:00Z,25.7020,-81.1860,1.0,22.23,2 
ENP,ioos.station.NOAA.NDBC:CNBF1:1,2014-11-06T13:00:00Z,25.7020,-81.1860,1.0,22.12,2 
ENP,ioos.station.NOAA.NDBC:CNBF1:1,2014-11-06T14:00:00Z,25.7020,-81.1860,1.0,22.06,2 
ENP,ioos.station.NOAA.NDBC:CNBF1:1,2014-11-06T15:00:00Z,25.7020,-81.1860,1.0,22.08,2 
ENP,ioos.station.NOAA.NDBC:CNBF1:1,2014-11-06T17:00:00Z,25.7020,-81.1860,1.0,22.55,2 
ENP,ioos.station.NOAA.NDBC:CNBF1:1,2014-11-06T18:00:00Z,25.7020,-81.1860,1.0,22.95,2 
ENP,ioos.station.NOAA.NDBC:CNBF1:1,2014-11-06T19:00:00Z,25.7020,-81.1860,1.0,23.51,2 
ENP,ioos.station.NOAA.NDBC:CNBF1:1,2014-11-06T21:00:00Z,25.7020,-81.1860,1.0,25.19,2 
ENP,ioos.station.NOAA.NDBC:CNBF1:1,2014-11-06T22:00:00Z,25.7020,-81.1860,1.0,25.93,2 
ENP,ioos.station.NOAA.NDBC:CNBF1:1,2014-11-06T23:00:00Z,25.7020,-81.1860,1.0,25.73,2 
ENP,ioos.station.NOAA.NDBC:CNBF1:1,2014-11-07T01:00:00Z,25.7020,-81.1860,1.0,24.81,2 
ENP,ioos.station.NOAA.NDBC:CNBF1:1,2014-11-07T02:00:00Z,25.7020,-81.1860,1.0,24.67,2 
ENP,ioos.station.NOAA.NDBC:CNBF1:1,2014-11-07T03:00:00Z,25.7020,-81.1860,1.0,24.55,2 
ENP,ioos.station.NOAA.NDBC:CNBF1:1,2014-11-07T05:00:00Z,25.7020,-81.1860,1.0,24.36,2 
ENP,ioos.station.NOAA.NDBC:CNBF1:1,2014-11-07T06:00:00Z,25.7020,-81.1860,1.0,24.23,2 
ENP,ioos.station.NOAA.NDBC:CNBF1:1,2014-11-07T07:00:00Z,25.7020,-81.1860,1.0,24.16,2 
ENP,ioos.station.NOAA.NDBC:CNBF1:1,2014-11-07T09:00:00Z,25.7020,-81.1860,1.0,24.03,2 
ENP,ioos.station.NOAA.NDBC:CNBF1:1,2014-11-07T10:00:00Z,25.7020,-81.1860,1.0,24.02,2 
ENP,ioos.station.NOAA.NDBC:CNBF1:1,2014-11-07T11:00:00Z,25.7020,-81.1860,1.0,24.04,2 
ENP,ioos.station.NOAA.NDBC:CNBF1:1,2014-11-07T12:00:00Z,25.7020,-81.1860,1.0,24.02,2 
ENP,ioos.station.NOAA.NDBC:CNBF1:1,2014-11-07T13:00:00Z,25.7020,-81.1860,1.0,23.94,2 
ENP,ioos.station.NOAA.NDBC:CNBF1:1,2014-11-07T14:00:00Z,25.7020,-81.1860,1.0,23.88,2 
ENP,ioos.station.NOAA.NDBC:CNBF1:1,2014-11-07T16:00:00Z,25.7020,-81.1860,1.0,24.2,2 
ENP,ioos.station.NOAA.NDBC:CNBF1:1,2014-11-07T17:00:00Z,25.7020,-81.1860,1.0,24.72,2 
ENP,ioos.station.NOAA.NDBC:CNBF1:1,2014-11-07T18:00:00Z,25.7020,-81.1860,1.0,24.83,2 
ENP,ioos.station.NOAA.NDBC:CNBF1:1,2014-11-07T19:00:00Z,25.7020,-81.1860,1.0,24.73,2 
ENP,ioos.station.NOAA.NDBC:CNBF1:1,2014-11-07T21:00:00Z,25.7020,-81.1860,1.0,25.34,2 
ENP,ioos.station.NOAA.NDBC:CNBF1:1,2014-11-07T22:00:00Z,25.7020,-81.1860,1.0,25.6,2 
ENP,ioos.station.NOAA.NDBC:CNBF1:1,2014-11-07T23:00:00Z,25.7020,-81.1860,1.0,25.6,2 
ENP,ioos.station.NOAA.NDBC:CNBF1:1,2014-11-08T01:00:00Z,25.7020,-81.1860,1.0,25.66,2 
ENP,ioos.station.NOAA.NDBC:CNBF1:1,2014-11-08T02:00:00Z,25.7020,-81.1860,1.0,25.54,2 
ENP,ioos.station.NOAA.NDBC:CNBF1:1,2014-11-08T03:00:00Z,25.7020,-81.1860,1.0,25.21,2 
ENP,ioos.station.NOAA.NDBC:CNBF1:1,2014-11-08T05:00:00Z,25.7020,-81.1860,1.0,25.02,2 
ENP,ioos.station.NOAA.NDBC:CNBF1:1,2014-11-08T07:00:00Z,25.7020,-81.1860,1.0,24.85,2 
ENP,ioos.station.NOAA.NDBC:CNBF1:1,2014-11-08T09:00:00Z,25.7020,-81.1860,1.0,24.67,2 
ENP,ioos.station.NOAA.NDBC:CNBF1:1,2014-11-08T10:00:00Z,25.7020,-81.1860,1.0,24.6,2 
ENP,ioos.station.NOAA.NDBC:CNBF1:1,2014-11-08T11:00:00Z,25.7020,-81.1860,1.0,24.52,2 
ENP,ioos.station.NOAA.NDBC:CNBF1:1,2014-11-08T12:00:00Z,25.7020,-81.1860,1.0,24.47,2 
ENP,ioos.station.NOAA.NDBC:CNBF1:1,2014-11-08T13:00:00Z,25.7020,-81.1860,1.0,24.39,2 
ENP,ioos.station.NOAA.NDBC:CNBF1:1,2014-11-08T14:00:00Z,25.7020,-81.1860,1.0,24.27,2 
ENP,ioos.station.NOAA.NDBC:CNBF1:1,2014-11-08T16:00:00Z,25.7020,-81.1860,1.0,24.29,2 
ENP,ioos.station.NOAA.NDBC:CNBF1:1,2014-11-08T17:00:00Z,25.7020,-81.1860,1.0,24.62,2 
ENP,ioos.station.NOAA.NDBC:CNBF1:1,2014-11-08T19:00:00Z,25.7020,-81.1860,1.0,26.62,2 
ENP,ioos.station.NOAA.NDBC:CNBF1:1,2014-11-08T20:00:00Z,25.7020,-81.1860,1.0,26.28,2 
ENP,ioos.station.NOAA.NDBC:CNBF1:1,2014-11-08T21:00:00Z,25.7020,-81.1860,1.0,26.26,2 
ENP,ioos.station.NOAA.NDBC:CNBF1:1,2014-11-08T22:00:00Z,25.7020,-81.1860,1.0,25.95,2 
ENP,ioos.station.NOAA.NDBC:CNBF1:1,2014-11-09T00:00:00Z,25.7020,-81.1860,1.0,25.72,2 
ENP,ioos.station.NOAA.NDBC:CNBF1:1,2014-11-09T01:00:00Z,25.7020,-81.1860,1.0,25.76,2 
ENP,ioos.station.NOAA.NDBC:CNBF1:1,2014-11-09T02:00:00Z,25.7020,-81.1860,1.0,25.75,2 
ENP,ioos.station.NOAA.NDBC:CNBF1:1,2014-11-09T03:00:00Z,25.7020,-81.1860,1.0,25.74,2 
ENP,ioos.station.NOAA.NDBC:CNBF1:1,2014-11-09T05:00:00Z,25.7020,-81.1860,1.0,25.44,2 
ENP,ioos.station.NOAA.NDBC:CNBF1:1,2014-11-09T06:00:00Z,25.7020,-81.1860,1.0,25.26,2 
ENP,ioos.station.NOAA.NDBC:CNBF1:1,2014-11-09T07:00:00Z,25.7020,-81.1860,1.0,25.09,2 
ENP,ioos.station.NOAA.NDBC:CNBF1:1,2014-11-09T09:00:00Z,25.7020,-81.1860,1.0,24.87,2 
ENP,ioos.station.NOAA.NDBC:CNBF1:1,2014-11-09T10:00:00Z,25.7020,-81.1860,1.0,24.79,2 
ENP,ioos.station.NOAA.NDBC:CNBF1:1,2014-11-09T11:00:00Z,25.7020,-81.1860,1.0,24.7,2 
ENP,ioos.station.NOAA.NDBC:CNBF1:1,2014-11-09T14:00:00Z,25.7020,-81.1860,1.0,24.61,2 
ENP,ioos.station.NOAA.NDBC:CNBF1:1,2014-11-09T15:00:00Z,25.7020,-81.1860,1.0,24.57,2 
ENP,ioos.station.NOAA.NDBC:CNBF1:1,2014-11-09T17:00:00Z,25.7020,-81.1860,1.0,24.55,2 
ENP,ioos.station.NOAA.NDBC:CNBF1:1,2014-11-09T18:00:00Z,25.7020,-81.1860,1.0,24.54,2 
ENP,ioos.station.NOAA.NDBC:CNBF1:1,2014-11-09T19:00:00Z,25.7020,-81.1860,1.0,24.51,2 
ENP,ioos.station.NOAA.NDBC:CNBF1:1,2014-11-09T20:00:00Z,25.7020,-81.1860,1.0,24.43,2 
ENP,ioos.station.NOAA.NDBC:CNBF1:1,2014-11-09T21:00:00Z,25.7020,-81.1860,1.0,24.28,2 
ENP,ioos.station.NOAA.NDBC:CNBF1:1,2014-11-09T22:00:00Z,25.7020,-81.1860,1.0,24.17,2 
ENP,ioos.station.NOAA.NDBC:CNBF1:1,2014-11-10T00:00:00Z,25.7020,-81.1860,1.0,23.95,2 
ENP,ioos.station.NOAA.NDBC:CNBF1:1,2014-11-10T01:00:00Z,25.7020,-81.1860,1.0,23.86,2 
ENP,ioos.station.NOAA.NDBC:CNBF1:1,2014-11-10T02:00:00Z,25.7020,-81.1860,1.0,23.8,2 
ENP,ioos.station.NOAA.NDBC:CNBF1:1,2014-11-10T03:00:00Z,25.7020,-81.1860,1.0,23.73,2 
ENP,ioos.station.NOAA.NDBC:CNBF1:1,2014-11-10T04:00:00Z,25.7020,-81.1860,1.0,23.64,2 
ENP,ioos.station.NOAA.NDBC:CNBF1:1,2014-11-10T06:00:00Z,25.7020,-81.1860,1.0,23.45,2 
ENP,ioos.station.NOAA.NDBC:CNBF1:1,2014-11-10T08:00:00Z,25.7020,-81.1860,1.0,23.35,2 
ENP,ioos.station.NOAA.NDBC:CNBF1:1,2014-11-10T09:00:00Z,25.7020,-81.1860,1.0,23.21,2 
ENP,ioos.station.NOAA.NDBC:CNBF1:1,2014-11-10T10:00:00Z,25.7020,-81.1860,1.0,23.14,2 
ENP,ioos.station.NOAA.NDBC:CNBF1:1,2014-11-10T11:00:00Z,25.7020,-81.1860,1.0,23.06,2 
ENP,ioos.station.NOAA.NDBC:CNBF1:1,2014-11-10T12:00:00Z,25.7020,-81.1860,1.0,22.93,2 
ENP,ioos.station.NOAA.NDBC:CNBF1:1,2014-11-10T13:00:00Z,25.7020,-81.1860,1.0,22.84,2 
ENP,ioos.station.NOAA.NDBC:CNBF1:1,2014-11-10T14:00:00Z,25.7020,-81.1860,1.0,22.74,2 
ENP,ioos.station.NOAA.NDBC:CNBF1:1,2014-11-10T16:00:00Z,25.7020,-81.1860,1.0,22.69,2 
ENP,ioos.station.NOAA.NDBC:CNBF1:1,2014-11-10T17:00:00Z,25.7020,-81.1860,1.0,22.72,2 
ENP,ioos.station.NOAA.NDBC:CNBF1:1,2014-11-10T18:00:00Z,25.7020,-81.1860,1.0,22.88,2 
ENP,ioos.station.NOAA.NDBC:CNBF1:1,2014-11-10T20:00:00Z,25.7020,-81.1860,1.0,23.91,2 
ENP,ioos.station.NOAA.NDBC:CNBF1:1,2014-11-10T21:00:00Z,25.7020,-81.1860,1.0,24.02,2 
ENP,ioos.station.NOAA.NDBC:CNBF1:1,2014-11-10T22:00:00Z,25.7020,-81.1860,1.0,24.08,2 
ENP,ioos.station.NOAA.NDBC:CNBF1:1,2014-11-10T23:00:00Z,25.7020,-81.1860,1.0,24.11,2 
ENP,ioos.station.NOAA.NDBC:CNBF1:1,2014-11-11T01:00:00Z,25.7020,-81.1860,1.0,23.93,2 
ENP,ioos.station.NOAA.NDBC:CNBF1:1,2014-11-11T02:00:00Z,25.7020,-81.1860,1.0,23.8,2 
ENP,ioos.station.NOAA.NDBC:CNBF1:1,2014-11-11T03:00:00Z,25.7020,-81.1860,1.0,23.67,2 
ENP,ioos.station.NOAA.NDBC:CNBF1:1,2014-11-11T05:00:00Z,25.7020,-81.1860,1.0,23.43,2 
ENP,ioos.station.NOAA.NDBC:CNBF1:1,2014-11-11T06:00:00Z,25.7020,-81.1860,1.0,23.31,2 
ENP,ioos.station.NOAA.NDBC:CNBF1:1,2014-11-11T07:00:00Z,25.7020,-81.1860,1.0,23.16,2 
ENP,ioos.station.NOAA.NDBC:CNBF1:1,2014-11-11T09:00:00Z,25.7020,-81.1860,1.0,22.85,2 
ENP,ioos.station.NOAA.NDBC:CNBF1:1,2014-11-11T10:00:00Z,25.7020,-81.1860,1.0,22.67,2 
ENP,ioos.station.NOAA.NDBC:CNBF1:1,2014-11-11T11:00:00Z,25.7020,-81.1860,1.0,22.52,2 
ENP,ioos.station.NOAA.NDBC:CNBF1:1,2014-11-11T13:00:00Z,25.7020,-81.1860,1.0,22.22,2 
ENP,ioos.station.NOAA.NDBC:CNBF1:1,2014-11-11T14:00:00Z,25.7020,-81.1860,1.0,22.16,2 
ENP,ioos.station.NOAA.NDBC:CNBF1:1,2014-11-11T15:00:00Z,25.7020,-81.1860,1.0,22.24,2 
ENP,ioos.station.NOAA.NDBC:CNBF1:1,2014-11-11T16:00:00Z,25.7020,-81.1860,1.0,22.46,2 
ENP,ioos.station.NOAA.NDBC:CNBF1:1,2014-11-11T17:00:00Z,25.7020,-81.1860,1.0,22.52,2 
ENP,ioos.station.NOAA.NDBC:CNBF1:1,2014-11-11T18:00:00Z,25.7020,-81.1860,1.0,23.03,2 
ENP,ioos.station.NOAA.NDBC:CNBF1:1,2014-11-11T19:00:00Z,25.7020,-81.1860,1.0,23.99,2 
ENP,ioos.station.NOAA.NDBC:CNBF1:1,2014-11-11T20:00:00Z,25.7020,-81.1860,1.0,24.2,2 
ENP,ioos.station.NOAA.NDBC:CNBF1:1,2014-11-11T21:00:00Z,25.7020,-81.1860,1.0,24.35,2 
ENP,ioos.station.NOAA.NDBC:CNBF1:1,2014-11-11T22:00:00Z,25.7020,-81.1860,1.0,24.09,2 
ENP,ioos.station.NOAA.NDBC:CNBF1:1,2014-11-11T23:00:00Z,25.7020,-81.1860,1.0,24.01,2 
ENP,ioos.station.NOAA.NDBC:CNBF1:1,2014-11-12T20:00:00Z,25.7020,-81.1860,1.0,22.76,2 
ENP,ioos.station.NOAA.NDBC:CNBF1:1,2014-11-12T21:00:00Z,25.7020,-81.1860,1.0,22.84,2 
ENP,ioos.station.NOAA.NDBC:CNBF1:1,2014-11-12T22:00:00Z,25.7020,-81.1860,1.0,22.84,2 
ENP,ioos.station.NOAA.NDBC:CNBF1:1,2014-11-13T00:00:00Z,25.7020,-81.1860,1.0,22.91,2 
ENP,ioos.station.NOAA.NDBC:CNBF1:1,2014-11-13T01:00:00Z,25.7020,-81.1860,1.0,23.42,2 
ENP,ioos.station.NOAA.NDBC:CNBF1:1,2014-11-13T02:00:00Z,25.7020,-81.1860,1.0,23.5,2 
ENP,ioos.station.NOAA.NDBC:CNBF1:1,2014-11-13T03:00:00Z,25.7020,-81.1860,1.0,23.5,2 
ENP,ioos.station.NOAA.NDBC:CNBF1:1,2014-11-13T05:00:00Z,25.7020,-81.1860,1.0,23.38,2 
ENP,ioos.station.NOAA.NDBC:CNBF1:1,2014-11-13T06:00:00Z,25.7020,-81.1860,1.0,23.29,2 
ENP,ioos.station.NOAA.NDBC:CNBF1:1,2014-11-13T07:00:00Z,25.7020,-81.1860,1.0,23.29,2 
ENP,ioos.station.NOAA.NDBC:CNBF1:1,2014-11-13T08:00:00Z,25.7020,-81.1860,1.0,23.27,2 
ENP,ioos.station.NOAA.NDBC:CNBF1:1,2014-11-13T09:00:00Z,25.7020,-81.1860,1.0,23.27,2 
ENP,ioos.station.NOAA.NDBC:CNBF1:1,2014-11-13T10:00:00Z,25.7020,-81.1860,1.0,23.26,2 
ENP,ioos.station.NOAA.NDBC:CNBF1:1,2014-11-13T11:00:00Z,25.7020,-81.1860,1.0,22.89,2 
ENP,ioos.station.NOAA.NDBC:CNBF1:1,2014-11-13T12:00:00Z,25.7020,-81.1860,1.0,22.49,2 
ENP,ioos.station.NOAA.NDBC:CNBF1:1,2014-11-13T13:00:00Z,25.7020,-81.1860,1.0,22.59,2 
ENP,ioos.station.NOAA.NDBC:CNBF1:1,2014-11-13T14:00:00Z,25.7020,-81.1860,1.0,23.07,2 
ENP,ioos.station.NOAA.NDBC:CNBF1:1,2014-11-13T16:00:00Z,25.7020,-81.1860,1.0,23.15,2 
ENP,ioos.station.NOAA.NDBC:CNBF1:1,2014-11-13T17:00:00Z,25.7020,-81.1860,1.0,23.23,2 
ENP,ioos.station.NOAA.NDBC:CNBF1:1,2014-11-13T18:00:00Z,25.7020,-81.1860,1.0,23.39,2 
ENP,ioos.station.NOAA.NDBC:CNBF1:1,2014-11-13T19:00:00Z,25.7020,-81.1860,1.0,23.46,2 
ENP,ioos.station.NOAA.NDBC:CNBF1:1,2014-11-13T22:00:00Z,25.7020,-81.1860,1.0,26.35,2 
ENP,ioos.station.NOAA.NDBC:CNBF1:1,2014-11-13T23:00:00Z,25.7020,-81.1860,1.0,26.1,2 
ENP,ioos.station.NOAA.NDBC:CNBF1:1,2014-11-14T00:00:00Z,25.7020,-81.1860,1.0,25.57,2 
ENP,ioos.station.NOAA.NDBC:CNBF1:1,2014-11-14T01:00:00Z,25.7020,-81.1860,1.0,25.32,2 
ENP,ioos.station.NOAA.NDBC:CNBF1:1,2014-11-14T02:00:00Z,25.7020,-81.1860,1.0,25.18,2 
ENP,ioos.station.NOAA.NDBC:CNBF1:1,2014-11-14T03:00:00Z,25.7020,-81.1860,1.0,25.0,2 
ENP,ioos.station.NOAA.NDBC:CNBF1:1,2014-11-14T05:00:00Z,25.7020,-81.1860,1.0,24.78,2 
ENP,ioos.station.NOAA.NDBC:CNBF1:1,2014-11-14T06:00:00Z,25.7020,-81.1860,1.0,24.66,2 
ENP,ioos.station.NOAA.NDBC:CNBF1:1,2014-11-14T07:00:00Z,25.7020,-81.1860,1.0,24.71,2 
ENP,ioos.station.NOAA.NDBC:CNBF1:1,2014-11-14T09:00:00Z,25.7020,-81.1860,1.0,23.8,2 
ENP,ioos.station.NOAA.NDBC:CNBF1:1,2014-11-14T10:00:00Z,25.7020,-81.1860,1.0,23.93,2 
ENP,ioos.station.NOAA.NDBC:CNBF1:1,2014-11-14T11:00:00Z,25.7020,-81.1860,1.0,24.0,2 
ENP,ioos.station.NOAA.NDBC:CNBF1:1,2014-11-14T13:00:00Z,25.7020,-81.1860,1.0,24.02,2 
ENP,ioos.station.NOAA.NDBC:CNBF1:1,2014-11-14T14:00:00Z,25.7020,-81.1860,1.0,24.02,2 
ENP,ioos.station.NOAA.NDBC:CNBF1:1,2014-11-14T16:00:00Z,25.7020,-81.1860,1.0,24.09,2 
ENP,ioos.station.NOAA.NDBC:CNBF1:1,2014-11-14T17:00:00Z,25.7020,-81.1860,1.0,24.18,2 
ENP,ioos.station.NOAA.NDBC:CNBF1:1,2014-11-14T18:00:00Z,25.7020,-81.1860,1.0,24.24,2 
ENP,ioos.station.NOAA.NDBC:CNBF1:1,2014-11-14T19:00:00Z,25.7020,-81.1860,1.0,25.11,2 
ENP,ioos.station.NOAA.NDBC:CNBF1:1,2014-11-14T21:00:00Z,25.7020,-81.1860,1.0,25.46,2 
ENP,ioos.station.NOAA.NDBC:CNBF1:1,2014-11-14T22:00:00Z,25.7020,-81.1860,1.0,25.34,2 
ENP,ioos.station.NOAA.NDBC:CNBF1:1,2014-11-15T00:00:00Z,25.7020,-81.1860,1.0,25.16,2 
ENP,ioos.station.NOAA.NDBC:CNBF1:1,2014-11-15T01:00:00Z,25.7020,-81.1860,1.0,25.05,2 
ENP,ioos.station.NOAA.NDBC:CNBF1:1,2014-11-15T02:00:00Z,25.7020,-81.1860,1.0,24.93,2 
ENP,ioos.station.NOAA.NDBC:CNBF1:1,2014-11-15T03:00:00Z,25.7020,-81.1860,1.0,24.92,2 
ENP,ioos.station.NOAA.NDBC:CNBF1:1,2014-11-15T05:00:00Z,25.7020,-81.1860,1.0,24.4,2 
ENP,ioos.station.NOAA.NDBC:CNBF1:1,2014-11-15T06:00:00Z,25.7020,-81.1860,1.0,24.42,2 
ENP,ioos.station.NOAA.NDBC:CNBF1:1,2014-11-15T07:00:00Z,25.7020,-81.1860,1.0,24.24,2 
ENP,ioos.station.NOAA.NDBC:CNBF1:1,2014-11-15T09:00:00Z,25.7020,-81.1860,1.0,24.19,2 
ENP,ioos.station.NOAA.NDBC:CNBF1:1,2014-11-15T10:00:00Z,25.7020,-81.1860,1.0,24.05,2 
ENP,ioos.station.NOAA.NDBC:CNBF1:1,2014-11-15T11:00:00Z,25.7020,-81.1860,1.0,24.13,2 
ENP,ioos.station.NOAA.NDBC:CNBF1:1,2014-11-15T12:00:00Z,25.7020,-81.1860,1.0,24.02,2 
ENP,ioos.station.NOAA.NDBC:CNBF1:1,2014-11-15T13:00:00Z,25.7020,-81.1860,1.0,23.0,2 
ENP,ioos.station.NOAA.NDBC:CNBF1:1,2014-11-15T14:00:00Z,25.7020,-81.1860,1.0,23.09,2 
ENP,ioos.station.NOAA.NDBC:CNBF1:1,2014-11-15T15:00:00Z,25.7020,-81.1860,1.0,23.66,2 
ENP,ioos.station.NOAA.NDBC:CNBF1:1,2014-11-15T16:00:00Z,25.7020,-81.1860,1.0,23.67,2 
ENP,ioos.station.NOAA.NDBC:CNBF1:1,2014-11-15T17:00:00Z,25.7020,-81.1860,1.0,23.89,2 
ENP,ioos.station.NOAA.NDBC:CNBF1:1,2014-11-15T18:00:00Z,25.7020,-81.1860,1.0,24.16,2 
ENP,ioos.station.NOAA.NDBC:CNBF1:1,2014-11-15T19:00:00Z,25.7020,-81.1860,1.0,24.48,2 
ENP,ioos.station.NOAA.NDBC:CNBF1:1,2014-11-15T21:00:00Z,25.7020,-81.1860,1.0,24.78,2 
ENP,ioos.station.NOAA.NDBC:CNBF1:1,2014-11-15T22:00:00Z,25.7020,-81.1860,1.0,25.01,2 
ENP,ioos.station.NOAA.NDBC:CNBF1:1,2014-11-15T23:00:00Z,25.7020,-81.1860,1.0,25.04,2 
ENP,ioos.station.NOAA.NDBC:CNBF1:1,2014-11-16T00:00:00Z,25.7020,-81.1860,1.0,24.97,2 
ENP,ioos.station.NOAA.NDBC:CNBF1:1,2014-11-16T01:00:00Z,25.7020,-81.1860,1.0,24.7,2 
ENP,ioos.station.NOAA.NDBC:CNBF1:1,2014-11-16T02:00:00Z,25.7020,-81.1860,1.0,24.86,2 
ENP,ioos.station.NOAA.NDBC:CNBF1:1,2014-11-16T03:00:00Z,25.7020,-81.1860,1.0,24.99,2 
ENP,ioos.station.NOAA.NDBC:CNBF1:1,2014-11-16T05:00:00Z,25.7020,-81.1860,1.0,24.74,2 
ENP,ioos.station.NOAA.NDBC:CNBF1:1,2014-11-16T06:00:00Z,25.7020,-81.1860,1.0,24.66,2 
ENP,ioos.station.NOAA.NDBC:CNBF1:1,2014-11-16T07:00:00Z,25.7020,-81.1860,1.0,24.57,2 
ENP,ioos.station.NOAA.NDBC:CNBF1:1,2014-11-16T18:00:00Z,25.7020,-81.1860,1.0,24.54,2 
ENP,ioos.station.NOAA.NDBC:CNBF1:1,2014-11-16T19:00:00Z,25.7020,-81.1860,1.0,24.93,2 
ENP,ioos.station.NOAA.NDBC:CNBF1:1,2014-11-16T20:00:00Z,25.7020,-81.1860,1.0,25.37,2 
ENP,ioos.station.NOAA.NDBC:CNBF1:1,2014-11-16T21:00:00Z,25.7020,-81.1860,1.0,25.59,2 